Probability
0 0 0 0 0 0 0 0 0 0 0 0 0 0 0 0 0 0 0 0 0 0 0 0 0 0 0 0 0 0 0 0 0 0 0 0 0 0 0 0 0 0 0
0 0 0 0 0 0 0 0 0 0 0 0 0 0 0 0 0 0 0 0 0 0 0 0 0 0 0 0 0 0 0 0 0 0 0 0 0 0 0 0 0 0 0
0 0 0 0 0 0 0 0 0 0 0 0 0 0 0 0 0 0 0 0 0 0 0 0 0 0 0 0 0 0 0 0 0 0 0 0 0 0 0 0 0 0 0
0 0 0 0 0 0 0 0 0 0 0 0 0 0 0 0 0 0 0 0 0 0 0 0 0 0 0 0 0 0 0 0 0 0 0 0 0 0 0 0 0 0 0
0 0 0 0 0 0 0 0 0 0 0 0 0 0 0 0 0 0 0 0 0 0 0 0 0 0 0 0 0 0 0 0 0 0 0 0 0 0 0 0 0 0 0
0 0 0 0 0 0 0 0 0 0 0 0 0 0 0 0 0 0 0 0 0 0 0 0 0 0 0 0 0 0 0 0 0 0 0 0 0 0 0 0 0 0 0
0 0 0 0 0 0 0 0 0 0 0 0 0 0 0 0 0 0 0 0 0 0 0 0 0 0 0 0 0 0 0 0 0 0 0 0 0 0 0 0 0 0 0
0 0 0 0 0 0 0 0 0 0 0 0 0 0 0 0 0 0 0 0 0 0 0 0 0 0 0 0 0 0 0 0 0 0 0 0 0 0 0 0 0 0 0
0 0 0 0 0 0 0 0 0 0 0 0 0 0 0 0 0 0 0 0 0 0 0 0 0 0 0 0 0 0 0 0 0 0 0 0 0 0 0 0 0 0 0
0 0 0 0 0 0 0 0 0 0 0 0 0 0 0 0 0 0 0 0 0 0 0 0 0 0 0 0 0 0 0 0 0 0 0 0 0 0 0 0 0 0 0
0 0 0 0 0 0 0 0 0 0 0 0 0 0 0 0 0 0 0 0 0 0 0 0 0 0 0 0 0 0 0 0 0 0 0 0 0 0 0 0 0 0 0
0 0 0 0 0 0 0 0 0 0 0 0 0 0 0 0 0 0 0 0 0 0 0 0 0 0 0 0 0 0 0 0 0 0 0 0 0 0 0 0 0 0 0
0 0 0 0 0 0 0 0 0 0 0 0 0 0 0 0 0 0 0 0 0 0 0 0 0 0 0 0 0 0 0 0 0 0 0 0 0 0 0 0 0 0 0
0 0 0 0 0 0 0 0 0 0 0 0 0 0 0 0 0 0 0 0 0 0 0 0 0 0 0 0 0 0 0 0 0 0 0 0 0 0 0 0 0 0 0
0 0 0 0 0 0 0 0 0 0 0 0 0 0 0 0 0 0 0 0 0 0 0 0 0 0 0 0 0 0 0 0 0 0 0 0 0 0 0 0 0 0 0
0 0 0 0 0 0 0 0 0 0 0 0 0 0 0 0 0 0 0 0 0 0 0 0 0 0 0 0 0 0 0 0 0 0 0 0 0 0 0 0 0 0 0
0 0 0 0 0 0 0 0 0 0 0 0 0 0 0 0 0 0 0 0 0 0 0 0 0 0 0 0 0 0 0 0 0 0 0 0 0 0 0 0 0 0 0
0 0 0 0 0 0 0 0 0 0 0 0 0 0 0 0 0 0 0 0 0 0 0 0 0 0 0 0 0 0 0 0 0 0 0 0 0 0 0 0 0 0 0
0 0 0 0 0 0 0 0 0 0 0 0 0 0 0 0 0 0 0 0 0 0 0 0 0 0 0 0 0 0 0 0 0 0 0 0 0 0 0 0 0 0 0
0 0 0 0 0 0 0 0 0 0 0 0 0 0 0 0 0 0 0 0 0 0 0 0 0 0 0 0 0 0 0 0 0 0 0 0 0 0 0 0 0 0 0
0 0 0 0 0 0 0 0 0 0 0 0 0 0 0 0 0 0 0 0 0 0 0 0 0 0 0 0 0 0 0 0 0 0 0 0 0 0 0 0 0 0 0
0 0 0 0 0 0 0 0 0 0 0 0 0 0 0 0 0 0 0 0 0 0 0 0 0 0 0 0 0 0 0 0 0 0 0 0 0 0 0 0 0 0 0
0 0 0 0 0 0 0 0 0 0 0 0 0 0 0 0 0 0 0 0 0 0 0 0 0 0 0 0 0 0 0 0 0 0 0 0 0 0 0 0 0 0 0
0 0 0 0 0 0 0 0 0 0 0 0 0 0 0 0 0 0 0 0 0 0 0 0 0 0 0 0 0 0 0 0 0 0 0 0 0 0 0 0 0 0 0
0 0 0 0 0 0 0 0 0 0 0 0 0 0 0 0 0 0 0 0 0 0 0 0 0 0 0 0 0 0 0 0 0 0 0 0 0 0 0 0 0 0 0
0 0 0 0 0 0 0 0 0 0 0 0 0 0 0 0 0 0 0 0 0 0 0 0 0 0 0 0 0 0 0 0 0 0 0 0 0 0 0 0 0 0 0
Wind_Speed
8 8 8 8 7 7 7 8 10 10 9 7 6 6 5 4 5 5 6 7 7 7 8 8 6 6 6 5 5 5 7 6 3 5 4 4 5 5 4 4 6 8 8
9 12 11 9 9 9 9 9 10 10 8 5 5 5 6 5 4 4 5 6 7 7 8 8 7 6 6 7 6 5 5 4 4 3 3 2 2 3 4 4 6 7 6
19 17 15 13 11 12 12 11 10 10 8 9 9 9 6 4 4 4 4 5 6 7 7 8 7 7 6 6 6 5 6 5 4 4 4 4 1 2 3 3 5 6 5
17 17 16 16 15 13 10 10 10 9 11 12 13 14 9 7 5 4 4 5 6 7 7 8 8 7 6 7 6 5 4 6 4 4 5 4 3 2 3 4 4 6 5
19 21 20 18 13 11 11 10 10 10 12 11 12 12 9 7 7 6 8 7 6 6 7 7 7 7 6 7 7 6 6 4 4 3 3 4 4 4 2 2 4 4 4
16 16 13 12 11 10 11 11 12 11 12 11 10 11 15 15 14 11 9 7 5 5 6 7 7 7 6 7 7 6 8 6 6 4 3 3 3 2 2 1 2 3 4
14 15 17 17 16 15 14 13 14 13 13 12 11 12 15 18 18 15 12 11 7 5 6 7 6 6 6 6 6 7 6 6 6 5 3 3 2 2 2 1 1 3 3
14 17 19 18 17 16 15 15 15 13 14 13 12 11 12 11 10 10 11 10 7 6 7 7 7 7 7 7 6 6 5 5 5 5 4 3 2 2 2 2 1 2 3
15 16 16 16 16 17 16 16 15 13 14 13 13 12 11 10 11 9 8 7 7 7 8 8 8 7 7 7 6 5 5 5 4 4 4 3 2 2 2 1 2 1 3
11 12 14 15 14 14 11 12 13 13 13 13 13 12 11 10 11 11 11 10 9 9 9 8 8 7 7 6 6 5 5 5 4 3 4 3 2 2 1 1 1 2 3
14 14 12 11 11 10 11 12 13 12 12 13 13 13 12 10 11 11 11 11 9 10 10 10 9 8 7 6 6 5 6 5 4 3 4 3 3 2 2 2 2 2 3
11 10 10 11 12 13 13 14 14 13 13 13 13 13 13 12 12 12 11 11 10 10 10 9 9 8 7 7 7 7 6 6 6 5 4 4 3 3 3 2 3 3 4
10 10 12 14 15 15 15 14 14 14 13 13 14 14 14 15 14 13 12 11 11 10 9 9 9 9 8 8 7 7 7 6 6 5 5 5 4 4 3 4 4 3 4
12 13 14 15 16 16 16 16 15 14 14 14 15 16 16 16 14 13 13 12 12 11 11 10 9 8 8 8 8 7 6 6 5 5 5 5 6 6 5 4 5 5 5
13 17 18 17 16 16 16 16 16 16 16 16 16 16 13 12 12 12 12 11 11 11 10 9 8 7 7 8 8 8 7 7 6 6 6 6 8 9 7 6 5 5 5
17 19 19 18 19 20 19 18 19 17 16 17 16 13 13 12 13 13 12 12 11 9 9 9 9 9 8 13 16 11 7 7 7 7 6 6 7 10 13 14 13 10 7
20 21 22 23 22 23 22 22 19 16 15 14 13 13 14 14 13 12 12 13 12 10 10 10 10 10 12 17 17 17 8 7 7 7 6 6 6 7 6 10 14 13 15
19 19 19 20 20 17 16 14 13 15 15 14 13 14 14 13 12 12 13 12 9 10 10 10 10 9 11 17 17 16 9 7 8 8 8 8 7 7 8 7 8 9 9
17 17 18 17 15 16 16 15 15 15 15 16 16 15 15 14 14 14 13 10 9 10 9 8 9 10 11 17 17 16 6 7 9 8 8 9 8 13 15 10 9 9 9
11 10 9 9 13 14 16 16 16 16 18 17 15 14 14 15 15 15 11 8 8 9 8 8 8 9 9 14 17 17 5 7 7 7 8 11 14 15 17 10 8 10 9
5 7 10 11 12 15 17 17 16 18 15 12 11 12 13 14 12 11 8 8 8 7 7 8 7 7 8 12 17 18 8 8 7 7 7 8 16 18 18 16 10 13 10
4 6 8 8 9 13 15 15 15 12 10 12 12 12 12 10 9 10 9 8 9 8 8 6 6 6 6 9 14 18 18 13 8 8 7 8 15 18 19 15 15 17 10
6 5 8 9 7 9 11 13 10 10 12 12 11 10 10 9 9 10 10 8 8 7 7 6 7 6 5 7 14 15 18 19 11 8 12 14 17 17 13 16 17 9 2
5 5 8 8 6 5 5 6 9 10 12 11 10 9 9 8 7 6 7 8 8 8 7 7 7 5 3 4 4 5 6 10 11 8 8 14 17 15 12 8 8 4 3
4 4 6 7 6 6 6 6 8 9 9 8 7 7 7 7 7 6 5 7 5 7 8 6 5 5 5 7 10 6 5 5 7 5 3 3 4 5 5 3 3 3 3
4 5 6 6 6 6 6 5 5 7 9 7 6 5 5 5 5 5 2 5 6 9 10 9 7 6 8 8 10 11 12 13 12 7 5 5 6 7 7 6 6 5 5
Wind_Direction
200 181 181 177 173 174 169 163 153 150 142 134 128 116 104 92 80 71 76 88 95 97 102 105 94 89 89 86 91 95 79 58 53 90 74 44 45 63 52 42 43 31 19
187 189 185 183 182 181 178 173 167 163 162 143 129 122 119 102 84 80 73 77 92 99 105 105 103 95 93 77 67 84 91 61 30 104 118 87 12 16 35 32 39 25 10
196 190 188 188 185 187 184 179 174 168 155 139 126 119 106 98 90 90 79 72 87 92 102 104 103 94 94 93 81 84 102 103 48 47 114 127 167 316 335 14 28 15 4
196 189 188 190 191 188 182 178 172 163 154 150 150 149 148 145 146 138 117 97 90 95 98 101 102 99 97 95 88 80 93 109 99 58 47 82 126 105 333 336 357 359 349
195 192 190 189 185 179 179 175 167 163 161 163 162 153 140 131 131 126 118 107 94 93 98 102 104 102 99 98 95 87 81 84 102 101 92 73 60 68 107 310 325 332 318
195 190 181 172 174 174 174 172 169 169 168 166 165 157 146 143 145 145 137 126 115 104 105 106 105 106 106 104 103 98 93 90 90 88 89 107 108 95 107 239 294 304 299
185 180 177 179 179 178 176 174 173 172 171 168 167 164 158 155 156 155 151 146 142 138 137 124 118 113 112 111 109 103 100 101 103 103 96 97 109 129 138 169 268 292 295
187 188 186 183 181 179 177 176 177 174 173 171 168 164 163 159 157 157 154 154 151 147 143 132 125 123 122 120 113 108 108 109 112 115 117 112 107 110 130 150 179 301 299
192 190 186 184 181 181 181 179 177 174 175 172 166 166 167 163 157 151 146 144 145 145 141 136 132 131 128 127 122 119 123 125 124 128 126 124 125 120 121 128 154 200 293
193 189 187 186 184 182 177 176 177 176 173 171 170 170 170 164 158 154 155 155 154 148 146 143 140 138 135 133 127 130 138 136 140 142 141 140 144 139 137 144 160 179 213
194 192 190 184 179 175 176 179 179 173 174 174 172 167 168 163 159 161 162 161 157 154 156 155 151 148 148 148 146 152 155 154 158 160 163 172 168 165 172 177 192 207 209
190 186 180 176 181 184 185 186 185 182 179 174 171 169 168 164 166 167 166 163 161 161 160 157 155 157 160 163 164 167 171 172 177 182 182 193 187 193 196 200 212 219 220
181 178 181 187 191 191 191 190 189 184 177 173 172 170 172 172 173 171 167 166 164 162 162 162 165 169 172 175 179 177 180 186 190 189 196 202 198 216 214 214 219 224 237
187 188 194 197 196 194 193 191 190 183 177 176 176 178 180 178 175 170 169 170 169 169 171 173 174 176 178 182 183 184 188 194 200 202 206 209 210 221 222 226 225 226 235
198 201 202 201 197 195 194 192 189 184 181 180 183 184 177 172 168 169 170 170 172 175 174 172 176 179 183 191 188 190 192 197 207 214 218 221 226 233 231 231 224 224 234
212 211 208 202 199 198 195 191 190 185 181 185 186 176 171 172 173 173 171 172 175 173 172 181 183 188 198 206 204 197 197 202 209 219 223 228 233 244 252 256 255 245 236
218 214 209 206 203 199 193 192 188 177 179 183 178 174 174 177 178 173 173 179 179 175 182 188 190 199 210 211 211 209 198 204 212 217 221 230 229 228 241 258 265 267 267
224 218 213 209 205 194 187 179 169 172 178 179 179 177 177 180 176 176 183 183 177 184 190 193 197 202 216 218 219 217 206 208 217 219 220 229 235 229 235 240 246 247 250
225 219 212 205 190 180 174 165 168 171 177 184 185 183 180 180 179 185 188 182 179 188 193 192 195 205 219 222 224 222 206 218 226 223 222 229 236 245 248 246 245 252 251
225 211 185 165 165 166 158 161 170 175 187 189 185 180 180 182 187 189 184 177 183 192 190 198 200 207 217 223 227 226 211 223 232 231 233 235 240 248 250 244 240 251 253
208 165 152 157 162 156 156 166 172 188 188 172 167 175 182 186 186 181 174 171 178 180 189 203 206 209 215 226 229 230 217 221 230 234 236 237 248 252 252 248 241 249 255
102 125 131 132 137 150 157 168 184 179 153 158 169 177 181 180 174 173 173 172 176 186 196 203 218 221 216 220 233 236 236 232 225 237 239 240 252 256 257 257 256 260 259
79 89 111 112 123 149 159 171 169 146 152 162 172 173 171 174 171 174 173 170 177 190 198 202 221 228 212 228 237 242 245 247 241 239 245 250 256 260 260 259 262 259 217
77 93 111 119 126 135 139 141 138 145 152 163 165 162 165 168 167 170 172 176 185 193 199 205 218 223 211 208 216 232 246 253 256 262 261 262 261 258 250 250 259 240 198
73 94 114 121 119 108 97 105 129 138 144 149 150 154 161 164 167 172 182 185 191 193 195 203 198 201 224 225 223 214 221 224 238 249 255 247 248 248 247 241 235 228 215
86 90 93 102 105 104 98 97 120 135 138 142 150 155 154 154 156 157 156 210 193 207 216 204 196 212 227 238 240 245 246 246 243 238 238 242 242 244 244 243 240 230 228